TITAN 3A TRANSTAGE R/B, 1001

Orbit data source: Space-Track

TITAN 3A TRANSTAGE R/B, 1001 is space debris in LEO originally from a launch on Thu, 11 Feb 1965 UTC via a TITAN IIIA launch vehicle from the Air Force Eastern Test Range (AFETR). Debris objects in space refer to the collection of defunct objects orbiting the Earth. Examples of debris include non-operational satellites, rocket bodies, and fragments generated from explosions, collisions, or faulty payload assembly.

Loading next visibility...
Identifier
1001, 1965-008A
Orbit
LEO
Country
Flag of USUS
Related business
Manufacturer
Martin Marietta
Mission
Spacecraft
Bus & Motor
TRUSS, Unknown motor
Mass
336 kg wet, 336 kg dry
Launch date (UTC)
1965-02-11 (61 years ago)
Launch vehicle
TITAN IIIA
Launch site
Air Force Eastern Test Range (AFETR)
Object type
Payload
Rocket body
Debris
Shape & HBR
Unknown
Radar Cross Section
Large (>1 m²)

Expand to show TLE details & history
Last TLE update: 9 hours ago

TLE from 9 hours ago
0 TITAN 3A TRANSTAGE R/B
1 01001U 65008A   25342.61056518  .00000008  00000-0 -11041-3 0  9998
2 01001  32.1407 201.6785 0018059 291.4821  68.3752  9.90722385202572
Epoch: 2025-12-08T14:39Z
TLE epoch observation values (Epoch: 2025-12-08T14:39:12.831Z)
Latitude
0.00002°
Longitude
-95.73206°
Altitude
2,772.049 km
Speed
6.604 km/s
True Right ascension
13h 26m 42s
True Declination
0° 00' 00"
Sunlit
Object was in daylight at epoch
Visualization orbit readout
Latitude
Unknown
Longitude
Unknown
Altitude
Unknown
Speed
Unknown
Apparent Right ascension
Unknown
Apparent Declination
Unknown
Sunlit
N/A
Visualization observer readout
Local Sidereal Time
22:18:27
Azimuth
Unknown
Elevation
Unknown
Doppler factor
Unknown
Orbital elements
Apogee altitude
2,798.474 km
Perigee altitude
2,765.389 km
Semi-major axis
9,160.069 km
Eccentricity
0.00181
Inclination
32.1407°
RAAN
201.6785°
Arg. of periapsis
291.4821°
True anomaly
68.56774°
Mean anomaly
68.3752°
Eccentric anomaly
68.47145°
Mean motion
2.47568 °/min
Orbital period
145.41 mins
BSTAR
-0.00011041
Loading maneuver chart data...
Computing Atmospheric mass density...
Loading historical data...
Loading historical data...
Loading historical data...
Loading historical data...
Loading historical data...
Loading historical data...
Loading historical data...
Other satellites on launch #8 in the year 1965 (1965-02-11 UTC)

Documentation

Showing up to 5 results
|